QPF
0.00 0.00 0.01 0.01 0.01 0.01 0.02 0.02 0.03 0.04 0.05 0.05 0.04 0.06 0.09 0.10 0.08 0.05 0.04 0.04 0.04 0.04 0.03 0.02 0.01 0.01 0.02 0.02 0.02 0.03 0.04 0.04 0.04 0.04 0.05 0.07 0.06 0.03 0.02 0.02 0.01 0.01 0.01
0.00 0.00 0.01 0.01 0.01 0.01 0.01 0.01 0.03 0.04 0.04 0.04 0.04 0.06 0.07 0.10 0.09 0.08 0.05 0.04 0.04 0.04 0.04 0.02 0.01 0.01 0.01 0.02 0.02 0.03 0.05 0.05 0.04 0.04 0.04 0.07 0.10 0.07 0.04 0.03 0.03 0.03 0.03
0.00 0.00 0.00 0.01 0.01 0.01 0.01 0.01 0.02 0.03 0.04 0.04 0.06 0.07 0.08 0.09 0.10 0.10 0.09 0.06 0.04 0.05 0.04 0.03 0.01 0.02 0.02 0.02 0.02 0.03 0.05 0.05 0.05 0.04 0.03 0.04 0.07 0.08 0.07 0.04 0.03 0.02 0.03
0.00 0.00 0.00 0.00 0.01 0.01 0.02 0.03 0.02 0.04 0.04 0.05 0.05 0.05 0.05 0.06 0.07 0.08 0.09 0.09 0.07 0.06 0.05 0.04 0.03 0.02 0.04 0.04 0.03 0.05 0.06 0.06 0.06 0.05 0.03 0.02 0.03 0.04 0.05 0.06 0.05 0.03 0.03
0.00 0.00 0.00 0.00 0.00 0.01 0.02 0.04 0.04 0.04 0.04 0.04 0.05 0.05 0.05 0.04 0.05 0.06 0.08 0.07 0.07 0.09 0.08 0.05 0.04 0.03 0.02 0.04 0.03 0.05 0.08 0.07 0.05 0.05 0.04 0.03 0.03 0.03 0.03 0.03 0.04 0.04 0.04
0.00 0.00 0.00 0.00 0.01 0.01 0.02 0.03 0.03 0.03 0.04 0.04 0.06 0.05 0.05 0.04 0.05 0.05 0.04 0.05 0.04 0.06 0.08 0.07 0.05 0.04 0.02 0.02 0.03 0.03 0.05 0.06 0.05 0.04 0.05 0.04 0.03 0.03 0.03 0.03 0.04 0.04 0.04
0.00 0.01 0.00 0.00 0.00 0.01 0.01 0.02 0.03 0.03 0.03 0.03 0.05 0.07 0.06 0.04 0.04 0.04 0.03 0.04 0.04 0.04 0.03 0.05 0.06 0.05 0.04 0.03 0.03 0.03 0.03 0.04 0.04 0.04 0.04 0.05 0.03 0.03 0.04 0.04 0.04 0.04 0.03
0.00 0.01 0.01 0.00 0.00 0.01 0.01 0.01 0.02 0.02 0.02 0.03 0.04 0.05 0.06 0.06 0.05 0.04 0.03 0.03 0.03 0.03 0.03 0.03 0.04 0.05 0.07 0.05 0.03 0.03 0.03 0.03 0.04 0.04 0.04 0.05 0.05 0.04 0.04 0.04 0.04 0.03 0.03
0.01 0.01 0.01 0.00 0.00 0.01 0.01 0.01 0.01 0.02 0.02 0.02 0.02 0.03 0.05 0.06 0.07 0.05 0.04 0.03 0.03 0.03 0.03 0.03 0.04 0.03 0.05 0.08 0.07 0.04 0.03 0.03 0.04 0.05 0.04 0.04 0.05 0.05 0.05 0.05 0.05 0.04 0.04
0.00 0.00 0.01 0.01 0.01 0.01 0.01 0.02 0.02 0.01 0.02 0.02 0.02 0.02 0.03 0.04 0.06 0.06 0.06 0.05 0.04 0.04 0.03 0.03 0.03 0.03 0.03 0.05 0.08 0.08 0.07 0.05 0.05 0.05 0.05 0.05 0.05 0.05 0.05 0.05 0.05 0.05 0.05
0.00 0.00 0.01 0.01 0.01 0.01 0.01 0.01 0.01 0.02 0.02 0.03 0.03 0.02 0.02 0.02 0.03 0.04 0.05 0.05 0.06 0.04 0.04 0.04 0.03 0.03 0.04 0.04 0.05 0.07 0.09 0.09 0.08 0.07 0.07 0.08 0.07 0.05 0.05 0.05 0.05 0.05 0.05
0.01 0.01 0.01 0.01 0.01 0.01 0.01 0.01 0.01 0.01 0.02 0.03 0.03 0.03 0.02 0.02 0.02 0.03 0.03 0.04 0.05 0.05 0.04 0.05 0.05 0.04 0.04 0.05 0.05 0.05 0.07 0.08 0.10 0.08 0.07 0.07 0.06 0.04 0.04 0.04 0.04 0.04 0.03
0.01 0.01 0.01 0.00 0.00 0.00 0.00 0.01 0.01 0.01 0.02 0.02 0.03 0.03 0.03 0.03 0.02 0.02 0.03 0.03 0.03 0.03 0.04 0.04 0.04 0.05 0.05 0.05 0.05 0.05 0.05 0.06 0.08 0.09 0.08 0.05 0.05 0.04 0.03 0.03 0.03 0.03 0.03
0.01 0.01 0.01 0.01 0.00 0.00 0.00 0.01 0.01 0.01 0.01 0.02 0.02 0.03 0.03 0.02 0.02 0.03 0.03 0.03 0.03 0.02 0.03 0.03 0.03 0.03 0.04 0.04 0.04 0.04 0.05 0.06 0.06 0.07 0.08 0.07 0.04 0.03 0.03 0.03 0.03 0.03 0.03
0.01 0.01 0.01 0.01 0.01 0.01 0.01 0.01 0.01 0.01 0.01 0.01 0.01 0.02 0.03 0.02 0.02 0.02 0.02 0.02 0.02 0.02 0.02 0.02 0.02 0.01 0.02 0.02 0.03 0.03 0.03 0.03 0.04 0.04 0.05 0.07 0.06 0.04 0.03 0.03 0.02 0.02 0.02
0.01 0.01 0.01 0.01 0.01 0.01 0.01 0.01 0.01 0.01 0.01 0.01 0.01 0.02 0.02 0.02 0.02 0.02 0.03 0.02 0.02 0.02 0.02 0.02 0.02 0.01 0.01 0.02 0.03 0.02 0.02 0.03 0.02 0.02 0.03 0.03 0.05 0.05 0.03 0.02 0.02 0.02 0.02
0.02 0.02 0.01 0.02 0.02 0.02 0.03 0.03 0.02 0.02 0.02 0.01 0.02 0.02 0.02 0.02 0.02 0.02 0.02 0.02 0.02 0.02 0.02 0.03 0.03 0.02 0.02 0.02 0.02 0.02 0.02 0.02 0.02 0.02 0.02 0.02 0.02 0.03 0.02 0.02 0.02 0.01 0.01
0.02 0.02 0.02 0.02 0.03 0.02 0.03 0.03 0.04 0.02 0.02 0.02 0.02 0.02 0.02 0.02 0.02 0.02 0.02 0.01 0.02 0.02 0.03 0.03 0.03 0.02 0.02 0.02 0.02 0.02 0.02 0.02 0.02 0.01 0.01 0.01 0.02 0.02 0.02 0.02 0.02 0.02 0.01
0.02 0.03 0.03 0.03 0.03 0.03 0.03 0.03 0.04 0.04 0.03 0.02 0.02 0.02 0.02 0.02 0.02 0.02 0.02 0.02 0.02 0.02 0.02 0.02 0.02 0.02 0.02 0.02 0.03 0.03 0.02 0.02 0.02 0.02 0.02 0.02 0.02 0.03 0.03 0.03 0.03 0.02 0.02
0.03 0.03 0.03 0.02 0.03 0.03 0.03 0.03 0.03 0.04 0.03 0.02 0.02 0.02 0.02 0.01 0.01 0.02 0.02 0.02 0.02 0.03 0.03 0.03 0.02 0.02 0.02 0.02 0.03 0.03 0.02 0.02 0.02 0.02 0.01 0.02 0.02 0.02 0.03 0.02 0.02 0.02 0.01
0.02 0.03 0.02 0.02 0.03 0.03 0.02 0.02 0.02 0.03 0.03 0.02 0.02 0.02 0.02 0.02 0.02 0.01 0.01 0.02 0.02 0.02 0.02 0.02 0.02 0.01 0.01 0.02 0.02 0.02 0.02 0.02 0.02 0.02 0.02 0.02 0.02 0.03 0.03 0.03 0.02 0.02 0.02
0.02 0.02 0.02 0.02 0.02 0.02 0.02 0.02 0.02 0.02 0.02 0.02 0.02 0.02 0.02 0.02 0.01 0.01 0.01 0.01 0.01 0.02 0.02 0.01 0.01 0.01 0.01 0.02 0.02 0.02 0.02 0.02 0.02 0.02 0.02 0.02 0.03 0.03 0.03 0.03 0.03 0.03 0.03
0.02 0.02 0.02 0.02 0.02 0.02 0.03 0.03 0.03 0.03 0.03 0.03 0.03 0.03 0.02 0.02 0.02 0.01 0.02 0.02 0.01 0.01 0.01 0.01 0.01 0.01 0.01 0.01 0.01 0.02 0.02 0.02 0.02 0.03 0.03 0.03 0.03 0.03 0.03 0.03 0.03 0.03 0.03
0.03 0.03 0.02 0.02 0.03 0.03 0.03 0.03 0.02 0.03 0.03 0.03 0.03 0.02 0.02 0.02 0.01 0.02 0.02 0.02 0.02 0.01 0.01 0.01 0.02 0.02 0.02 0.01 0.01 0.02 0.02 0.02 0.03 0.03 0.03 0.03 0.03 0.03 0.04 0.04 0.03 0.03 0.02
0.03 0.03 0.03 0.03 0.04 0.03 0.03 0.03 0.03 0.03 0.03 0.03 0.02 0.02 0.02 0.01 0.01 0.01 0.02 0.02 0.02 0.02 0.02 0.02 0.02 0.02 0.03 0.03 0.02 0.02 0.02 0.02 0.02 0.02 0.02 0.03 0.03 0.04 0.04 0.03 0.03 0.02 0.02
0.03 0.03 0.04 0.04 0.04 0.03 0.03 0.03 0.03 0.03 0.03 0.03 0.03 0.02 0.02 0.02 0.01 0.01 0.02 0.02 0.02 0.02 0.02 0.02 0.02 0.02 0.03 0.04 0.04 0.03 0.02 0.02 0.02 0.02 0.02 0.02 0.03 0.04 0.04 0.03 0.03 0.02 0.02
MSLP
1025.18 1024.75 1024.36 1023.97 1023.56 1023.07 1022.46 1021.73 1020.90 1020.04 1019.21 1018.49 1017.95 1017.60 1017.46 1017.47 1017.60 1017.77 1017.94 1018.08 1018.18 1018.25 1018.32 1018.41 1018.54 1018.70 1018.89 1019.08 1019.25 1019.36 1019.40 1019.38 1019.30 1019.19 1019.06 1018.92 1018.79 1018.67 1018.55 1018.43 1018.33 1018.25 1018.21
1025.80 1025.36 1024.95 1024.56 1024.15 1023.66 1023.07 1022.36 1021.57 1020.73 1019.92 1019.21 1018.64 1018.25 1018.03 1017.95 1017.97 1018.03 1018.09 1018.13 1018.15 1018.17 1018.21 1018.28 1018.41 1018.58 1018.78 1018.97 1019.14 1019.26 1019.31 1019.30 1019.24 1019.13 1019.01 1018.88 1018.74 1018.60 1018.45 1018.30 1018.14 1018.01 1017.91
1026.34 1025.92 1025.53 1025.15 1024.75 1024.28 1023.71 1023.03 1022.27 1021.48 1020.70 1020.01 1019.44 1019.02 1018.74 1018.58 1018.49 1018.43 1018.37 1018.31 1018.23 1018.17 1018.14 1018.17 1018.26 1018.40 1018.58 1018.76 1018.91 1019.02 1019.07 1019.07 1019.01 1018.93 1018.83 1018.72 1018.59 1018.45 1018.30 1018.12 1017.93 1017.75 1017.61
1026.81 1026.43 1026.07 1025.72 1025.34 1024.90 1024.35 1023.72 1023.00 1022.24 1021.51 1020.85 1020.29 1019.86 1019.53 1019.30 1019.11 1018.95 1018.78 1018.60 1018.42 1018.26 1018.14 1018.09 1018.11 1018.19 1018.30 1018.43 1018.54 1018.62 1018.65 1018.64 1018.59 1018.52 1018.44 1018.36 1018.26 1018.14 1018.00 1017.82 1017.63 1017.43 1017.26
1027.23 1026.91 1026.60 1026.28 1025.93 1025.51 1024.99 1024.38 1023.70 1022.99 1022.29 1021.66 1021.12 1020.68 1020.33 1020.05 1019.79 1019.53 1019.26 1018.97 1018.68 1018.41 1018.19 1018.04 1017.96 1017.94 1017.97 1018.01 1018.05 1018.07 1018.05 1018.01 1017.95 1017.88 1017.81 1017.75 1017.68 1017.60 1017.49 1017.35 1017.17 1016.99 1016.82
1027.63 1027.36 1027.10 1026.83 1026.51 1026.10 1025.61 1025.02 1024.36 1023.68 1023.02 1022.41 1021.89 1021.45 1021.09 1020.77 1020.46 1020.13 1019.78 1019.40 1019.00 1018.63 1018.29 1018.02 1017.82 1017.68 1017.59 1017.52 1017.45 1017.37 1017.28 1017.18 1017.08 1016.99 1016.92 1016.88 1016.84 1016.80 1016.74 1016.65 1016.53 1016.39 1016.26
1028.03 1027.80 1027.59 1027.35 1027.05 1026.67 1026.19 1025.61 1024.96 1024.30 1023.66 1023.07 1022.56 1022.13 1021.76 1021.42 1021.08 1020.70 1020.28 1019.82 1019.34 1018.87 1018.42 1018.03 1017.69 1017.42 1017.19 1016.98 1016.78 1016.59 1016.39 1016.20 1016.03 1015.90 1015.81 1015.77 1015.75 1015.76 1015.76 1015.75 1015.71 1015.65 1015.58
1028.43 1028.24 1028.06 1027.85 1027.58 1027.20 1026.72 1026.14 1025.50 1024.84 1024.20 1023.63 1023.13 1022.70 1022.32 1021.97 1021.60 1021.19 1020.73 1020.21 1019.66 1019.10 1018.55 1018.04 1017.58 1017.16 1016.78 1016.43 1016.09 1015.75 1015.43 1015.13 1014.88 1014.68 1014.55 1014.49 1014.50 1014.55 1014.62 1014.69 1014.75 1014.80 1014.83
1028.83 1028.67 1028.52 1028.33 1028.07 1027.69 1027.21 1026.62 1025.97 1025.31 1024.67 1024.09 1023.58 1023.14 1022.76 1022.39 1022.00 1021.57 1021.08 1020.53 1019.92 1019.30 1018.67 1018.05 1017.47 1016.92 1016.40 1015.89 1015.40 1014.93 1014.47 1014.06 1013.70 1013.43 1013.25 1013.17 1013.18 1013.27 1013.41 1013.57 1013.74 1013.90 1014.05
1029.24 1029.10 1028.96 1028.79 1028.52 1028.14 1027.65 1027.05 1026.39 1025.71 1025.05 1024.46 1023.93 1023.48 1023.08 1022.69 1022.28 1021.83 1021.32 1020.74 1020.10 1019.43 1018.73 1018.04 1017.35 1016.69 1016.04 1015.40 1014.78 1014.17 1013.59 1013.06 1012.60 1012.25 1012.02 1011.91 1011.92 1012.04 1012.24 1012.49 1012.77 1013.04 1013.31
1029.63 1029.51 1029.38 1029.20 1028.93 1028.54 1028.03 1027.42 1026.74 1026.05 1025.37 1024.75 1024.20 1023.72 1023.29 1022.87 1022.45 1021.98 1021.44 1020.85 1020.19 1019.48 1018.74 1017.99 1017.23 1016.47 1015.72 1014.97 1014.23 1013.51 1012.82 1012.20 1011.66 1011.24 1010.95 1010.81 1010.82 1010.96 1011.21 1011.53 1011.89 1012.27 1012.64
1030.00 1029.88 1029.75 1029.56 1029.27 1028.86 1028.34 1027.72 1027.03 1026.32 1025.63 1024.98 1024.40 1023.89 1023.42 1022.97 1022.51 1022.02 1021.47 1020.86 1020.19 1019.46 1018.70 1017.90 1017.09 1016.26 1015.43 1014.60 1013.77 1012.96 1012.19 1011.50 1010.90 1010.43 1010.10 1009.94 1009.94 1010.09 1010.36 1010.73 1011.16 1011.60 1012.05
1030.32 1030.20 1030.04 1029.83 1029.51 1029.08 1028.55 1027.92 1027.23 1026.52 1025.82 1025.15 1024.55 1024.00 1023.49 1023.00 1022.51 1021.99 1021.43 1020.81 1020.13 1019.39 1018.61 1017.79 1016.94 1016.07 1015.17 1014.28 1013.38 1012.51 1011.69 1010.94 1010.30 1009.80 1009.45 1009.27 1009.26 1009.41 1009.70 1010.08 1010.54 1011.03 1011.52
1030.57 1030.42 1030.23 1029.97 1029.62 1029.17 1028.63 1028.00 1027.32 1026.62 1025.92 1025.26 1024.63 1024.05 1023.51 1022.98 1022.46 1021.91 1021.33 1020.70 1020.02 1019.29 1018.49 1017.66 1016.78 1015.86 1014.93 1013.98 1013.04 1012.12 1011.26 1010.49 1009.82 1009.30 1008.94 1008.75 1008.73 1008.87 1009.15 1009.54 1010.00 1010.50 1011.01
1030.71 1030.51 1030.27 1029.95 1029.56 1029.09 1028.54 1027.93 1027.28 1026.61 1025.94 1025.28 1024.65 1024.05 1023.48 1022.92 1022.37 1021.80 1021.20 1020.57 1019.88 1019.15 1018.35 1017.50 1016.59 1015.65 1014.67 1013.68 1012.69 1011.74 1010.85 1010.05 1009.38 1008.85 1008.49 1008.29 1008.26 1008.39 1008.65 1009.02 1009.47 1009.95 1010.46
1030.70 1030.44 1030.12 1029.74 1029.31 1028.82 1028.28 1027.70 1027.09 1026.46 1025.83 1025.20 1024.58 1023.97 1023.38 1022.80 1022.22 1021.64 1021.03 1020.39 1019.71 1018.97 1018.17 1017.30 1016.37 1015.39 1014.37 1013.33 1012.30 1011.31 1010.39 1009.58 1008.90 1008.36 1008.00 1007.80 1007.77 1007.88 1008.13 1008.48 1008.90 1009.36 1009.86
1030.52 1030.18 1029.78 1029.33 1028.86 1028.36 1027.84 1027.30 1026.74 1026.17 1025.59 1024.99 1024.39 1023.79 1023.19 1022.59 1022.00 1021.40 1020.79 1020.15 1019.47 1018.73 1017.93 1017.05 1016.09 1015.07 1014.00 1012.92 1011.84 1010.80 1009.85 1009.02 1008.32 1007.79 1007.42 1007.23 1007.19 1007.30 1007.53 1007.86 1008.27 1008.72 1009.20
1030.16 1029.72 1029.24 1028.74 1028.23 1027.73 1027.24 1026.75 1026.25 1025.74 1025.21 1024.65 1024.07 1023.47 1022.86 1022.25 1021.65 1021.04 1020.43 1019.80 1019.13 1018.40 1017.60 1016.71 1015.73 1014.67 1013.56 1012.42 1011.29 1010.21 1009.22 1008.36 1007.66 1007.12 1006.76 1006.57 1006.54 1006.65 1006.88 1007.20 1007.60 1008.06 1008.55
1029.61 1029.09 1028.55 1028.00 1027.48 1026.99 1026.54 1026.10 1025.65 1025.19 1024.70 1024.17 1023.60 1023.00 1022.38 1021.76 1021.15 1020.54 1019.94 1019.32 1018.66 1017.95 1017.16 1016.27 1015.28 1014.19 1013.04 1011.86 1010.68 1009.56 1008.54 1007.65 1006.94 1006.40 1006.04 1005.86 1005.85 1005.97 1006.21 1006.55 1006.97 1007.44 1007.96
1028.94 1028.36 1027.77 1027.20 1026.68 1026.22 1025.79 1025.39 1024.99 1024.57 1024.09 1023.57 1023.00 1022.38 1021.75 1021.11 1020.49 1019.88 1019.29 1018.69 1018.06 1017.37 1016.60 1015.72 1014.73 1013.64 1012.47 1011.26 1010.05 1008.90 1007.86 1006.97 1006.24 1005.71 1005.37 1005.20 1005.21 1005.35 1005.62 1005.99 1006.44 1006.94 1007.50
1028.20 1027.58 1026.98 1026.42 1025.91 1025.47 1025.07 1024.70 1024.32 1023.90 1023.42 1022.88 1022.28 1021.64 1020.98 1020.32 1019.68 1019.07 1018.49 1017.91 1017.31 1016.66 1015.92 1015.07 1014.10 1013.03 1011.86 1010.65 1009.45 1008.30 1007.26 1006.37 1005.65 1005.14 1004.82 1004.68 1004.71 1004.89 1005.19 1005.59 1006.08 1006.63 1007.24
1027.47 1026.85 1026.26 1025.71 1025.23 1024.81 1024.43 1024.06 1023.66 1023.22 1022.71 1022.13 1021.49 1020.80 1020.10 1019.41 1018.76 1018.15 1017.58 1017.02 1016.46 1015.85 1015.15 1014.34 1013.42 1012.38 1011.25 1010.08 1008.90 1007.78 1006.77 1005.91 1005.23 1004.75 1004.46 1004.36 1004.43 1004.64 1004.98 1005.42 1005.94 1006.54 1007.19
1026.81 1026.22 1025.66 1025.14 1024.67 1024.26 1023.87 1023.48 1023.05 1022.56 1021.99 1021.35 1020.65 1019.91 1019.16 1018.44 1017.77 1017.16 1016.59 1016.06 1015.53 1014.95 1014.31 1013.55 1012.68 1011.70 1010.64 1009.53 1008.42 1007.36 1006.41 1005.62 1004.99 1004.56 1004.32 1004.26 1004.37 1004.62 1004.99 1005.46 1006.02 1006.65 1007.34
1026.26 1025.72 1025.19 1024.69 1024.24 1023.81 1023.39 1022.95 1022.45 1021.89 1021.26 1020.54 1019.77 1018.98 1018.19 1017.44 1016.75 1016.13 1015.57 1015.05 1014.54 1014.00 1013.40 1012.70 1011.89 1010.99 1010.01 1008.99 1007.97 1007.01 1006.16 1005.45 1004.91 1004.55 1004.37 1004.36 1004.51 1004.80 1005.20 1005.69 1006.28 1006.93 1007.65
1025.84 1025.33 1024.83 1024.34 1023.87 1023.41 1022.93 1022.42 1021.85 1021.20 1020.48 1019.70 1018.87 1018.03 1017.20 1016.42 1015.72 1015.08 1014.52 1014.01 1013.51 1012.99 1012.42 1011.77 1011.03 1010.21 1009.32 1008.41 1007.51 1006.67 1005.94 1005.35 1004.91 1004.64 1004.54 1004.59 1004.79 1005.11 1005.53 1006.05 1006.65 1007.32 1008.05
1025.50 1025.01 1024.51 1024.01 1023.51 1022.98 1022.43 1021.83 1021.17 1020.44 1019.64 1018.79 1017.91 1017.03 1016.18 1015.38 1014.66 1014.02 1013.44 1012.92 1012.41 1011.90 1011.35 1010.73 1010.05 1009.31 1008.53 1007.74 1006.97 1006.27 1005.68 1005.22 1004.90 1004.74 1004.73 1004.86 1005.11 1005.46 1005.92 1006.45 1007.07 1007.74 1008.48
Thickness
5613 5617 5620 5623 5624 5626 5627 5628 5628 5629 5629 5629 5630 5630 5631 5631 5632 5634 5635 5636 5636 5635 5635 5634 5634 5633 5633 5633 5632 5631 5630 5628 5628 5626 5623 5623 5624 5625 5626 5627 5627 5627 5626
5600 5606 5610 5612 5615 5618 5619 5620 5621 5622 5623 5624 5624 5624 5624 5624 5625 5627 5627 5628 5628 5628 5628 5628 5627 5627 5626 5625 5625 5624 5622 5621 5622 5620 5616 5613 5614 5616 5617 5618 5619 5619 5619
5591 5596 5600 5602 5605 5608 5611 5614 5614 5615 5616 5616 5616 5616 5615 5615 5616 5618 5619 5620 5621 5621 5621 5621 5620 5620 5619 5619 5618 5618 5617 5615 5614 5615 5614 5609 5608 5606 5608 5609 5610 5610 5611
5581 5586 5590 5593 5596 5600 5603 5605 5606 5607 5608 5609 5609 5610 5610 5610 5611 5612 5613 5613 5613 5614 5613 5613 5613 5613 5613 5612 5612 5612 5612 5611 5609 5608 5608 5608 5607 5602 5600 5599 5600 5601 5602
5568 5574 5579 5583 5587 5590 5592 5594 5597 5598 5600 5601 5602 5603 5603 5603 5603 5603 5604 5604 5605 5606 5605 5605 5606 5606 5606 5606 5606 5606 5606 5605 5604 5603 5601 5600 5599 5598 5596 5592 5591 5592 5593
5557 5562 5567 5572 5575 5578 5581 5583 5586 5588 5590 5592 5594 5595 5595 5594 5594 5594 5595 5596 5596 5596 5597 5598 5598 5599 5599 5599 5600 5600 5599 5599 5598 5598 5597 5596 5594 5592 5590 5586 5584 5583 5584
5543 5548 5554 5559 5563 5566 5569 5572 5575 5578 5580 5583 5585 5587 5588 5587 5587 5588 5588 5588 5588 5588 5589 5590 5590 5591 5592 5592 5593 5593 5593 5592 5592 5591 5591 5590 5590 5589 5586 5582 5577 5575 5574
5530 5536 5542 5546 5551 5555 5558 5562 5565 5568 5570 5574 5576 5578 5579 5579 5580 5581 5581 5581 5581 5581 5581 5582 5583 5583 5584 5585 5585 5586 5586 5585 5585 5584 5584 5583 5583 5582 5581 5578 5572 5567 5564
5516 5522 5529 5535 5539 5543 5548 5552 5555 5558 5560 5563 5566 5568 5570 5571 5572 5573 5573 5573 5573 5573 5573 5574 5574 5576 5576 5577 5578 5578 5578 5577 5577 5576 5575 5575 5575 5574 5574 5572 5569 5565 5560
5501 5508 5515 5522 5527 5531 5536 5540 5544 5547 5550 5553 5556 5559 5561 5563 5564 5564 5564 5564 5565 5565 5565 5565 5566 5567 5568 5568 5569 5570 5569 5569 5568 5567 5566 5566 5566 5565 5564 5562 5560 5559 5556
5487 5493 5500 5507 5513 5518 5523 5528 5532 5536 5539 5542 5546 5549 5551 5553 5554 5555 5556 5556 5556 5556 5557 5557 5558 5558 5559 5560 5560 5561 5561 5560 5559 5558 5558 5557 5557 5555 5554 5552 5550 5548 5546
5474 5480 5486 5492 5498 5504 5509 5515 5520 5524 5528 5531 5535 5539 5541 5543 5544 5546 5547 5548 5548 5548 5549 5549 5549 5550 5550 5551 5551 5551 5551 5551 5551 5550 5549 5548 5547 5546 5544 5543 5541 5539 5537
5461 5466 5472 5478 5484 5490 5495 5501 5507 5512 5516 5520 5524 5527 5531 5533 5535 5537 5538 5539 5539 5539 5540 5540 5541 5541 5541 5541 5541 5542 5542 5542 5542 5541 5541 5540 5538 5537 5535 5534 5532 5530 5528
5448 5454 5459 5464 5470 5476 5482 5488 5494 5500 5505 5509 5513 5516 5520 5523 5525 5527 5529 5529 5530 5530 5531 5531 5532 5533 5533 5532 5532 5532 5532 5532 5532 5532 5532 5531 5530 5529 5527 5524 5522 5520 5518
5436 5441 5446 5451 5457 5463 5469 5475 5481 5487 5492 5497 5501 5505 5509 5512 5515 5516 5518 5519 5520 5521 5521 5522 5522 5522 5523 5523 5523 5523 5522 5522 5522 5522 5521 5521 5521 5520 5518 5516 5513 5511 5508
5424 5429 5434 5439 5444 5451 5457 5462 5468 5474 5480 5486 5489 5493 5497 5500 5503 5505 5507 5508 5509 5510 5510 5511 5511 5511 5512 5513 5513 5513 5512 5512 5511 5511 5510 5510 5510 5509 5507 5506 5505 5503 5501
5412 5417 5422 5427 5432 5438 5444 5450 5455 5461 5467 5473 5477 5481 5484 5487 5490 5492 5494 5496 5497 5498 5499 5499 5499 5500 5500 5501 5502 5502 5501 5501 5500 5500 5499 5499 5499 5498 5496 5496 5494 5493 5492
5399 5405 5410 5415 5420 5426 5432 5438 5444 5449 5455 5460 5464 5468 5471 5474 5476 5479 5481 5483 5484 5485 5486 5487 5488 5488 5489 5489 5490 5490 5489 5489 5489 5488 5489 5488 5488 5487 5486 5484 5482 5482 5481
5388 5393 5399 5404 5409 5414 5420 5426 5431 5436 5441 5446 5451 5455 5458 5461 5463 5466 5468 5470 5471 5472 5473 5475 5476 5476 5477 5478 5478 5478 5478 5477 5477 5477 5477 5477 5476 5476 5475 5473 5471 5470 5469
5378 5384 5388 5392 5397 5402 5408 5414 5418 5422 5428 5432 5437 5442 5446 5449 5451 5453 5455 5457 5459 5460 5461 5462 5463 5464 5465 5466 5467 5467 5467 5466 5466 5466 5466 5466 5466 5465 5464 5462 5460 5459 5458
5368 5373 5377 5381 5386 5391 5396 5401 5406 5410 5415 5420 5424 5428 5432 5436 5438 5440 5442 5444 5446 5447 5448 5449 5451 5452 5453 5455 5456 5456 5456 5455 5455 5454 5454 5454 5454 5453 5452 5451 5449 5449 5447
5357 5362 5366 5370 5374 5379 5385 5390 5394 5398 5403 5408 5412 5416 5419 5423 5426 5428 5429 5431 5433 5434 5435 5436 5437 5439 5441 5443 5444 5445 5445 5445 5445 5444 5444 5444 5443 5442 5441 5440 5439 5437 5435
5345 5350 5354 5358 5363 5368 5373 5377 5382 5387 5392 5396 5400 5404 5407 5410 5412 5415 5416 5418 5420 5421 5422 5423 5425 5426 5428 5430 5432 5433 5433 5434 5434 5434 5434 5433 5432 5431 5430 5429 5428 5426 5424
5335 5339 5343 5347 5351 5355 5360 5365 5370 5376 5380 5384 5388 5391 5394 5397 5399 5401 5404 5406 5408 5409 5410 5412 5413 5414 5416 5417 5419 5420 5421 5422 5422 5422 5421 5421 5420 5419 5419 5417 5415 5414 5413
5325 5329 5332 5336 5339 5344 5349 5354 5359 5365 5369 5372 5376 5379 5382 5384 5386 5388 5390 5393 5396 5398 5400 5401 5402 5403 5404 5407 5408 5409 5409 5410 5410 5409 5408 5407 5407 5406 5405 5404 5403 5402 5400
5315 5319 5323 5326 5329 5333 5338 5342 5347 5352 5357 5361 5364 5367 5369 5372 5375 5376 5377 5380 5383 5385 5387 5389 5391 5392 5395 5396 5397 5398 5399 5399 5399 5398 5397 5396 5395 5394 5394 5393 5391 5389 5388